NOAA 16 DEB, 41511

Orbit data source: Space-Track

NOAA 16 DEB, 41511 is space debris in SSO originally from a launch on Thu, 21 Sep 2000 UTC launched from the Air Force Western Test Range (AFWTR). Debris objects in space refer to the collection of defunct objects orbiting the Earth. Examples of debris include non-operational satellites, rocket bodies, and fragments generated from explosions, collisions, or faulty payload assembly.

Loading next visibility...
Identifier
41511, 2000-055MK
Orbit
SSO
Country
Flag of USUS
Related business
Manufacturer
Unknown
Mission
Spacecraft
Bus & Motor
Unknown
Mass
Unknown
Launch date (UTC)
2000-09-21 (25 years ago)
Launch vehicle
Unknown
Launch site
Air Force Western Test Range (AFWTR)
Object type
Payload
Rocket body
Debris
Shape & HBR
Unknown shape, 0.1 m
Radar Cross Section
Small (<0.1 m²)

Expand to show TLE details & history
Last TLE update: 8 hours ago

TLE from 8 hours ago
0 NOAA 16 DEB
1 41511U 00055MK  25343.58844751  .00005365  00000-0  24525-2 0  9990
2 41511  98.6990  37.5685 0023692 297.9125  61.9653 14.21722372500978
Epoch: 2025-12-09T14:07Z
TLE epoch observation values (Epoch: 2025-12-09T14:07:21.864Z)
Latitude
-0.0001°
Longitude
107.15644°
Altitude
814.466 km
Speed
7.45 km/s
True Right ascension
02h 30m 16s
True Declination
0° 00' 00"
Sunlit
Object was in full shadow at epoch
Visualization orbit readout
Latitude
Unknown
Longitude
Unknown
Altitude
Unknown
Speed
Unknown
Apparent Right ascension
Unknown
Apparent Declination
Unknown
Sunlit
N/A
Visualization observer readout
Local Sidereal Time
19:54:19
Azimuth
Unknown
Elevation
Unknown
Doppler factor
Unknown
Orbital elements
Apogee altitude
833.735 km
Perigee altitude
799.644 km
Semi-major axis
7,194.827 km
Eccentricity
0.00237
Inclination
98.699°
RAAN
37.5685°
Arg. of periapsis
297.9125°
True anomaly
62.20527°
Mean anomaly
61.9653°
Eccentric anomaly
62.08525°
Mean motion
3.55642 °/min
Orbital period
101.23 mins
BSTAR
0.0024525
Loading maneuver chart data...
Computing Atmospheric mass density...
Loading historical data...
Loading historical data...
Loading historical data...
Loading historical data...
Loading historical data...
Loading historical data...
Loading historical data...

Documentation

Showing up to 5 results
|